sat.trackr.live / text

‹ back to catalog

NUSANTARA LIMA (NUSANT*)

NORAD 65588 · 2025-205A

PAYLOAD ACTIVE UNKNOWN

§ Identity

Operator
Country
INDO
Launch date
2025-09-12
Launch site
AFETR
Launch vehicle
Mass (kg)
RCS (m²)

Purposes: comms

External: N2YO · Heavens-Above · Gunter

§ Orbital elements

Epoch: 2026-09-19T21:15:38.616768Z

Period
1,436.11 min
Inclination
0.0143°
Eccentricity
0.0000349
Mean motion
1.00271083 rev/d
Perigee alt
35,785.3 km
Apogee alt
35,788.3 km
Semi-major
42,164.9 km
B*
0.0000e+0
RAAN
350.5398°
Arg perigee
259.1726°
Mean anomaly
180.8442°
Rev number
366

§ Raw data

NUSANTARA LIMA (NUSANT*)1 65588U 25205A   26262.88586362 -.00000362  00000+0  00000+0 0  99902 65588   0.0143 350.5398 0000349 259.1726 180.8442  1.00271083  3667

JSON: /api/v1/satellites/65588 · /tle

For live sub-satellite position, see the globe view (requires WebGL).

§ Visibility from observer

Set your observer location to see the next 7 days of passes ≥ 10°. The values pass through the URL so the page stays shareable.

No JS? Fill the form by hand. The geolocation button needs JavaScript.